Wind_Speed
7 8 7 6 5 5 6 6 5 5 7 7 8 9 9 8 9 9 10 11 12 12 10 10 10 9 10 11 8 8 8 5 4 3 3 2 1 1 1 2 3 3 4
8 8 7 8 7 7 6 6 6 6 6 7 8 8 9 10 11 11 12 13 13 13 13 12 13 12 12 12 13 11 12 12 9 5 4 3 3 3 2 1 1 1 1
8 7 8 7 6 7 6 7 8 9 9 10 10 10 11 11 12 12 12 15 14 15 15 14 14 15 14 14 14 14 15 12 11 10 7 5 5 6 5 4 3 3 3
8 8 7 7 7 7 8 8 9 10 11 11 12 12 13 13 12 14 15 15 16 17 15 16 13 15 14 15 17 16 15 15 15 13 11 9 7 8 7 7 7 5 5
10 9 8 7 8 9 9 10 10 11 12 13 13 14 14 16 18 17 16 16 14 17 18 16 12 13 13 15 16 17 17 16 16 17 15 13 11 10 9 9 9 8 8
11 10 9 9 9 10 11 12 13 14 14 15 16 16 17 18 19 18 18 19 15 14 10 7 9 11 11 12 11 11 13 17 18 17 18 17 15 13 12 12 12 11 10
7 7 9 9 10 12 13 12 14 15 16 15 14 16 17 16 18 18 20 13 11 7 9 7 6 6 7 9 8 8 10 10 13 16 17 18 20 19 17 16 16 15 14
13 13 13 12 14 15 15 14 15 15 16 16 8 10 3 9 14 16 14 8 5 6 6 3 6 6 6 5 8 9 11 13 13 13 14 14 16 19 22 20 21 20 20
12 13 13 14 15 15 17 18 18 17 17 19 17 11 3 3 4 2 3 4 4 0 3 7 3 2 5 4 7 9 12 13 11 11 10 11 12 14 16 20 24 29 23
7 7 7 8 9 9 10 10 10 12 12 14 14 13 18 15 2 3 3 7 4 5 0 3 4 3 2 7 9 12 12 11 11 12 12 11 12 12 14 16 18 22 13
5 6 6 7 7 8 8 10 10 9 10 12 14 16 17 17 18 7 3 7 7 3 4 1 2 2 5 7 7 8 9 9 11 12 11 11 10 11 13 13 12 14 15
5 5 4 4 4 6 7 8 8 9 10 10 12 14 16 11 5 8 5 8 8 4 2 4 5 5 4 6 5 6 9 11 12 12 12 9 9 11 12 13 15 13 13
2 4 6 5 6 8 9 9 9 9 8 8 12 14 15 18 17 13 10 3 5 5 3 1 3 4 4 5 5 5 10 13 14 15 9 6 8 10 12 15 16 15 13
5 7 7 6 7 7 8 7 8 6 7 10 11 10 11 12 11 11 9 8 2 7 6 4 3 4 5 6 6 7 10 11 13 11 10 8 10 12 13 15 17 13 17
6 6 5 5 6 6 7 6 5 6 5 8 7 5 5 5 3 5 4 4 2 2 2 1 2 1 2 6 7 7 9 8 9 8 10 10 12 14 15 13 17 11 9
4 3 4 5 5 6 6 5 4 5 4 7 7 4 5 3 4 4 2 4 3 2 2 0 1 3 3 3 8 7 7 5 4 7 8 8 10 12 14 12 14 15 22
5 4 5 4 4 5 5 3 5 5 4 5 3 3 4 4 3 5 4 2 3 3 2 1 1 3 1 2 5 6 6 6 6 4 6 7 8 7 8 8 10 10 10
4 5 5 4 4 4 3 2 3 1 1 1 2 3 1 3 2 3 3 3 2 2 2 1 1 4 3 5 4 5 6 5 7 10 8 6 6 5 5 7 7 5 6
2 3 3 3 3 3 2 3 2 3 5 6 6 5 5 5 5 4 4 4 5 4 2 1 2 2 3 5 5 6 5 7 7 9 9 11 7 5 4 5 4 3 2
4 4 5 4 4 3 2 2 4 5 5 5 6 6 6 5 6 6 5 4 4 5 3 3 2 1 1 3 4 7 4 4 7 7 6 7 9 8 8 7 4 2 1
3 4 4 4 3 2 3 4 6 7 8 8 7 7 7 7 6 5 4 3 4 4 3 3 4 1 2 3 4 5 5 7 2 6 8 4 7 6 5 5 7 6 5
4 4 4 4 4 4 4 7 8 9 7 8 8 7 5 5 6 6 6 7 5 3 5 2 1 2 3 3 3 5 6 5 3 7 14 9 4 6 4 8 10 10 8
5 5 5 4 4 4 6 8 9 9 9 8 8 7 5 5 5 5 6 5 5 6 6 2 4 2 2 3 3 3 4 4 4 9 11 3 7 4 4 6 9 12 7
9 8 7 7 7 5 7 7 8 8 7 8 8 7 6 3 3 2 3 4 3 2 1 1 1 1 2 1 1 2 5 6 6 1 7 2 8 8 8 5 7 10 6
10 10 11 10 8 7 7 7 7 7 7 6 5 5 7 3 3 2 3 6 2 2 3 3 2 3 4 5 4 3 1 4 2 2 4 5 6 13 7 2 5 6 6
12 12 10 10 8 7 7 8 8 6 6 5 4 3 4 3 1 1 1 2 1 1 3 2 2 4 4 2 1 1 3 1 1 1 4 7 7 10 5 2 3 7 8
Wind_Direction
190 187 193 204 216 212 217 226 234 241 258 263 263 269 275 276 279 275 271 280 290 298 291 282 273 262 268 282 289 309 315 307 321 319 319 325 320 349 48 79 81 86 70
197 196 196 205 211 223 212 226 238 249 255 261 264 266 271 272 272 272 269 272 281 289 295 287 278 270 261 259 264 265 288 291 306 309 312 280 255 242 228 225 221 180 95
198 206 201 218 219 219 223 233 243 251 258 262 266 270 270 269 270 273 278 282 277 278 287 298 293 282 269 261 259 255 264 265 272 285 301 302 245 238 234 229 217 191 170
203 209 215 218 223 226 232 240 250 256 261 264 267 272 279 284 281 279 280 278 282 280 282 291 291 293 288 277 265 263 260 252 261 267 267 266 262 244 239 227 219 218 207
217 215 223 233 234 239 243 250 255 260 268 276 281 284 284 282 281 280 283 283 285 289 285 286 280 294 292 295 283 266 267 269 263 255 259 255 250 243 241 236 232 222 216
220 222 224 238 243 249 252 254 261 262 271 278 283 282 280 283 281 276 274 276 284 290 280 273 296 297 307 307 305 308 278 273 275 273 259 248 244 244 244 241 237 230 224
227 234 241 243 258 258 264 267 275 282 286 281 288 283 281 283 282 269 265 266 274 288 296 303 316 315 310 332 332 298 292 294 287 287 286 274 253 239 236 235 234 231 224
235 242 243 247 251 259 261 266 270 283 282 281 282 288 290 295 278 278 254 225 261 262 284 290 297 306 315 348 342 314 302 297 294 286 282 293 280 268 247 238 238 227 220
228 235 242 255 261 265 271 273 275 274 278 276 271 261 300 248 350 226 242 229 250 229 290 293 308 300 346 322 304 300 305 309 312 314 322 312 300 291 279 260 254 241 219
235 246 250 253 258 261 266 270 274 269 271 273 275 274 260 267 262 305 287 232 220 229 194 28 151 123 305 308 306 306 308 318 316 320 330 324 318 308 294 286 277 266 238
253 263 265 267 265 264 263 264 266 265 268 273 274 276 277 274 273 260 254 275 280 209 209 318 230 244 304 313 322 321 328 338 342 348 345 340 329 315 307 306 314 285 240
268 283 279 275 283 279 277 274 276 282 281 268 276 270 269 269 270 240 229 240 257 251 278 258 256 305 314 306 347 345 338 342 334 340 340 330 335 335 327 315 294 289 250
186 236 285 285 284 283 286 286 283 273 274 275 274 271 266 264 265 265 258 232 242 234 177 217 318 310 303 292 335 344 344 354 360 1 0 12 10 354 344 339 313 271 251
209 253 278 285 281 286 287 287 284 284 267 276 276 275 275 269 258 251 246 229 211 218 203 203 219 283 304 319 344 337 349 14 31 35 41 35 15 4 358 351 336 288 235
234 257 273 287 293 296 296 295 291 269 276 282 273 279 255 251 250 239 220 269 196 173 231 107 183 302 347 326 348 349 8 23 40 40 42 26 20 28 36 25 31 29 218
239 254 264 278 289 298 304 307 300 280 270 261 268 256 255 260 271 269 252 234 235 227 212 117 113 337 348 6 351 5 12 7 11 41 31 15 19 24 34 40 42 40 61
249 251 261 269 279 290 292 298 274 269 234 236 262 268 249 245 231 268 275 210 215 216 235 96 47 326 341 10 355 16 9 5 355 9 3 16 15 16 16 31 48 60 71
262 264 268 264 268 283 284 260 290 273 214 188 114 201 209 217 179 153 139 135 151 95 195 185 241 348 7 28 27 358 12 5 358 9 12 8 352 3 9 26 37 58 96
243 288 293 288 272 273 250 215 168 154 149 145 142 165 131 152 141 135 141 140 118 104 115 198 183 28 353 346 38 43 46 32 7 3 15 13 15 7 354 5 13 22 42
221 244 270 276 281 267 239 155 166 170 159 133 130 133 133 132 116 101 106 107 108 114 117 159 106 5 328 12 16 20 22 4 350 351 5 14 6 23 16 6 343 318 306
240 247 259 268 267 168 181 175 154 150 140 137 131 124 103 95 100 123 126 92 100 111 116 113 145 171 129 66 34 3 348 345 48 10 6 6 357 356 21 339 327 327 302
231 218 220 220 210 218 224 152 158 162 165 148 135 120 111 90 75 69 75 70 63 95 99 134 91 91 87 87 24 5 3 17 346 355 347 6 25 9 359 322 316 318 294
222 209 207 202 183 226 165 162 176 177 169 156 145 128 106 92 86 78 75 70 63 69 77 70 93 86 77 14 0 19 352 353 323 336 344 29 22 8 6 335 327 335 323
209 198 190 175 191 172 149 156 148 148 147 141 130 119 112 135 82 98 79 77 62 37 71 102 124 156 235 219 263 343 346 330 330 89 349 344 345 334 325 319 319 344 17
199 190 194 198 193 177 171 156 151 148 151 147 153 161 148 146 89 92 68 65 16 344 18 23 358 333 292 277 275 265 316 333 342 73 6 348 333 330 339 14 335 351 4
203 200 205 202 189 197 195 186 172 167 159 153 178 188 176 161 109 45 83 53 5 158 301 309 330 319 330 1 43 198 250 177 21 358 355 351 352 359 341 149 319 316 321
Height
845 846 848 849 850 850 851 852 852 853 854 854 855 855 855 855 854 854 853 853 852 851 851 851 850 851 851 851 850 850 850 849 849 848 848 848 849 849 849 849 850 850 850
845 845 846 847 848 849 850 851 851 852 852 853 853 853 853 853 853 852 851 851 850 850 849 849 849 848 849 850 849 849 848 847 847 847 846 847 848 848 848 849 849 849 850
843 844 845 846 847 848 849 849 850 851 851 851 851 851 851 850 850 850 849 848 847 847 847 847 847 846 846 847 846 846 845 845 845 846 845 845 846 846 846 848 848 849 850
842 843 844 845 846 847 848 848 849 849 849 849 849 848 848 847 847 846 846 846 845 844 844 844 844 844 844 843 843 843 843 842 842 843 844 844 845 846 846 846 847 848 849
840 842 843 844 845 846 846 847 847 847 847 847 846 846 845 844 844 844 843 843 842 842 840 840 841 841 841 840 840 839 840 840 840 839 840 841 842 843 844 845 846 846 847
838 840 842 843 844 844 844 845 845 845 845 844 844 843 842 842 841 840 839 839 839 839 838 837 838 839 839 838 838 837 837 837 838 838 838 838 839 840 841 843 844 845 846
837 838 840 841 842 842 842 843 843 843 842 842 841 840 839 838 837 835 835 835 836 836 836 836 837 838 837 837 836 835 835 834 833 834 836 836 835 836 837 837 839 842 844
834 836 837 838 839 839 840 840 840 840 840 840 840 839 837 835 833 830 830 832 833 834 834 835 836 836 836 836 834 833 833 833 831 829 829 831 831 832 832 833 835 836 838
832 833 835 835 835 836 836 837 837 837 837 837 838 839 837 837 832 830 830 831 832 832 833 833 834 834 834 834 833 832 832 831 830 829 826 827 826 827 828 830 830 827 830
829 830 831 832 832 833 833 834 834 835 834 834 835 835 835 835 834 833 829 830 830 831 832 832 833 831 832 832 832 831 830 828 828 827 827 825 825 825 824 825 825 825 825
827 827 828 828 829 830 830 831 831 832 832 832 832 832 833 832 832 831 831 829 829 829 829 830 830 829 830 831 830 830 828 826 826 825 824 823 822 821 821 820 820 821 821
824 825 826 826 827 828 828 828 828 828 828 828 829 830 830 830 828 828 828 828 829 828 827 828 828 827 829 829 829 829 828 826 824 823 822 821 820 818 817 816 816 816 815
823 823 824 824 825 825 826 826 826 826 826 826 826 826 826 825 826 826 826 825 826 826 826 826 826 825 827 829 828 827 826 825 823 823 821 820 818 816 814 813 810 810 812
821 822 822 822 822 823 823 824 823 823 823 822 822 822 822 821 821 822 822 822 824 825 823 824 824 824 825 825 827 825 825 825 823 822 820 819 817 814 812 810 806 803 805
819 820 820 821 821 821 821 820 820 820 820 820 820 819 819 819 819 820 819 821 820 821 824 825 824 824 824 824 824 824 825 826 824 824 821 819 816 813 812 811 807 802 802
817 817 818 818 818 819 818 818 817 817 819 818 818 818 818 818 818 818 818 819 819 820 822 823 824 824 823 824 824 823 824 826 825 823 821 819 817 814 812 811 810 808 804
814 815 815 815 815 815 816 816 816 816 816 816 816 815 817 816 817 817 817 817 818 819 820 822 823 824 824 823 824 824 824 824 823 821 821 819 818 816 814 813 813 812 811
812 813 813 813 812 812 813 814 815 815 814 815 815 815 815 815 815 817 817 817 818 819 821 821 824 823 823 819 822 823 824 824 823 821 820 819 818 817 815 814 814 815 815
810 813 812 811 810 810 811 812 814 814 813 812 814 815 816 816 815 816 817 818 817 816 821 822 824 822 823 820 821 821 821 824 823 821 820 820 818 817 816 816 816 816 816
808 810 811 810 809 809 811 811 812 813 812 814 814 816 817 817 817 816 817 818 817 815 819 820 823 820 822 822 822 822 821 821 821 821 820 820 819 818 817 816 816 816 817
806 808 809 810 811 809 809 811 811 812 812 813 815 817 818 817 818 817 816 818 815 816 818 820 820 821 820 820 822 822 822 820 820 819 819 819 818 818 818 817 817 816 816
805 807 808 809 809 808 810 809 811 812 813 815 815 815 818 818 819 818 817 816 818 818 815 822 819 820 821 820 821 821 822 820 819 819 818 818 817 817 817 817 816 816 815
805 806 806 809 808 809 808 810 810 812 813 813 816 815 816 818 818 818 818 818 820 818 819 821 819 820 821 820 821 819 821 820 820 819 819 817 817 817 817 816 816 815 814
803 804 806 807 806 809 809 810 809 810 814 815 814 815 814 817 817 819 816 818 820 820 820 819 819 820 821 820 821 819 820 819 818 818 819 817 817 815 815 815 814 814 813
800 801 804 805 806 808 809 809 810 812 813 813 815 815 815 816 814 818 818 816 821 821 820 819 819 819 820 819 819 818 818 818 817 818 818 818 817 814 812 813 813 813 813
797 799 801 803 804 807 808 810 810 811 812 811 815 815 815 814 813 816 816 817 820 821 820 819 819 819 819 819 818 817 817 817 818 818 818 818 817 816 813 812 812 811 811